Вернуться в каталог

STARLINK-4497

АктивенСвязьVLEO
NORAD 53411·PAYLOAD·🇺🇸 United States

Запущен Aug 10, 2022 с Cape Canaveral Space Force Station

Loading…

Ближайшие Пролёты (ближайшие 24 часа)

TLE

СвежийSource: CelesTrak SupGP

Эпоха: Sep 14, 2026, 21:13 UTC

1 53411C 22097Z   26257.88451389  .00119540  00000+0  61547-2 0  2573
2 53411  53.1605 343.7899 0001250  87.2079  29.5660 15.15845418    11

Отслеживайте STARLINK-4497 в реальном времени с AllMySat

Download on the App Store